METEOR 2-7 DEB, 59993

Orbit data source: Space-Track

METEOR 2-7 DEB, 59993 is space debris in LEO originally from a launch on Thu, 14 May 1981 UTC launched from the Plesetsk Missile And Space Complex (PKMTR). Debris objects in space refer to the collection of defunct objects orbiting the Earth. Examples of debris include non-operational satellites, rocket bodies, and fragments generated from explosions, collisions, or faulty payload assembly.

Loading next visibility...
METEOR 2-7 DEB details
Identifier
59993, 1981-043AB
Orbit
LEO
Last TLE update8 months ago
Origin
Flag of CISVVKO VKS (CIS)
ManufacturerUnknown
MissionSpacecraft
Bus & MotorUnknown
MassUnknown
Launch date (UTC)
1981-05-14 (44 years ago)
Launch vehicleUnknown
Launch site
Plesetsk Missile And Space Complex (PKMTR)
Object type
Payload
Rocket body
Debris
Shape & HBRUnknown
Radar Cross SectionSmall (<0.1 m²)

Expand to show TLE details & history

TLE from 8 months ago
0 METEOR 2-7 DEB
1 59993U 81043AB  24130.65328582  .00007853  00000-0  35089-2 0  9990
2 59993  81.2617 107.4372 0046605  99.7047 260.9399 14.22000615444778
Epoch: 2024-05-09T15:40Z
Definitive object data (Epoch: 2024-05-09T15:40:43.894Z)
Latitude-0.00006°
Longitude4.30925°
Altitude826.946 km
Speed7.437 km/s
True Right ascension07h 09m 44s
True Declination0° 00' 00"
Sunlit
Object was in daylight at TLE epoch
Visualization TLE readout
Latitude4.80035°
Longitude-45.86594°
Altitude778.102 km
Speed7.481 km/s
Apparent Right ascension02h 58m 52s
Apparent Declination-16° 40' 02"
Sunlit
Object is in daylight
Visualization observer readout
Local Sidereal Time13:45:10
Azimuth320.179° NNW
Elevation-61.778°
Doppler factor1
Orbital elements
Apogee altitude849.279 km
Perigee altitude782.225 km
Semi-major axis7,193.889 km
Eccentricity0.0046605
Inclination81.2617°
RAAN107.4372°
Arg. of periapsis99.7047°
True anomaly260.413°
Mean anomaly260.9399°
Eccentric anomaly260.6764°
Mean motion3.55711 °/min
BSTAR0.0035089
Orbital period101.21 mins
Loading maneuver chart data...
Loading historical data...
Loading historical data...
Loading historical data...
Loading historical data...
Loading historical data...
Loading historical data...
Loading historical data...

METEOR 2-7 DEB Visibility forecast

Observer location: undefined°, undefined

Span
Click to sort rows by Start time (UTC) header in descending order
Start Az.
Max El. time (UTC)
Max El. Az.
Max El.
End time (UTC)
End Az.
8 mins2024-12-26 17:04:20.104Z196.944° SSW2024-12-26 17:08:20.104Z318.79° NNW43.409°2024-12-26 17:12:20.104Z4.402° NNE
8 mins2024-12-27 03:38:20.104Z1.066° NNE2024-12-27 03:41:20.104Z49.988° ENE41.713°2024-12-27 03:46:20.104Z160.686° S
|